Preview of NWS' New Version of Forecast
This preview is not operational and should not be used for support decisions.

Regional Weather Roundup (RWR)

Issued by Gray - Portland, ME (GYX)

                            
000
ASUS41 KGYX 222205
RWRGYX
WEATHER ROUNDUP FOR MAINE AND NEW HAMPSHIRE
NATIONAL WEATHER SERVICE GRAY ME
600 PM EDT MON JUL 22 2019

MEZ002-005-006-010-012-015-018-020-021-024-026-027-029-222300-
MAINE
  
CITY           SKY/WX    TMP DP  RH WIND       PRES   REMARKS
PORTLAND       RAIN      69  65  86 S3        29.87S FOG              
SANFORD        RAIN      66  63  90 CALM      29.89S FOG              
BAR HARBOR     PTSUNNY   71  57  61 CALM      29.87F                  
WISCASSET      LGT RAIN  71  67  87 CALM      29.89S FOG              
ROCKLAND       LGT RAIN  70  66  87 SE3       29.87S                  
FRYEBURG       CLOUDY    66  64  93 CALM      29.88S FOG              
LEWISTONAUBURN LGT RAIN  69  62  78 CALM      29.89R                  
AUGUSTA        PTSUNNY   68  59  73 CALM      29.88F                  
WATERVILLE     FAIR      66  61  84 CALM      29.85F                  
BANGOR         CLOUDY    69  60  73 CALM      29.86F                  
GREENVILLE       N/A     62  49  62 NW5       29.88F                  
MILLINOCKET    PTSUNNY   68  54  60 NW6       29.87F                  
HOULTON        FAIR      68  53  58 NW6       29.84F                  
PRESQUE ISLE   FAIR      68  51  54 NW5       29.86F                  
FRENCHVILLE    FAIR      66  47  50 SW6       29.85F                  
CARIBOU        FAIR      68  48  48 NW3       29.84F                  
$$

NHZ002-005-008-009-011-012-014-222300-
NEW HAMPSHIRE
  
CITY           SKY/WX    TMP DP  RH WIND       PRES   REMARKS
PORTSMOUTH     LGT RAIN  67  63  86 NE8       29.85F FOG              
ROCHESTER      LGT RAIN  67  64  90 E6        29.87F FOG              
NASHUA         LGT RAIN  67  67 100 CALM      29.87F FOG              
MANCHESTER     LGT RAIN  67  64  90 E7        29.84F                  
CONCORD        LGT RAIN  65  62  90 CALM      29.87F FOG              
LACONIA        LGT RAIN  67  65  93 NW3       29.88F                  
PLYMOUTH       LGT RAIN  66  64  90 CALM      29.88S                  
BERLIN         PTSUNNY   64  57  78 S6        29.90S                  
WHITEFIELD     LGT RAIN  63  59  87 SE5       29.90R                  
JAFFREY        LGT RAIN  65  62  90 CALM      29.88S FOG              
KEENE          HVY RAIN  65  64  97 N3        29.86F FOG              
LEBANON        LGT RAIN  67  62  84 CALM      29.88S                  
MT WASHINGTON  RAIN      46  45  93 VRB5        N/A                   
$$

VTZ005-007-008-222300-
VERMONT
  
CITY           SKY/WX    TMP DP  RH WIND       PRES   REMARKS
ST JOHNSBURY     N/A     64  60  87 MISG      29.87F                  
MONTPELIER     CLOUDY    63  61  93 S5        29.92F                  
BURLINGTON     PTSUNNY   68  60  75 E3        29.86F                  
$$

MAZ007-012-024-CTZ003-RIZ002-NYZ038-NYZ072-222300-
SOUTHERN NEW ENGLAND AND NY
  
CITY           SKY/WX    TMP DP  RH WIND       PRES   REMARKS
BOSTON         CLOUDY    74  63  68 NE14      29.84S                  
WORCESTER      LGT RAIN  65  64  97 NE12      29.86F                  
NANTUCKET      FAIR      76  71  85 E8        29.80F                  
PROVIDENCE     PTSUNNY   78  66  66 E13       29.80F                  
HARTFORD       TSTM      67  65  93 NE12      29.79F FOG              
ALBANY         LGT RAIN  67  63  87 N8        29.83F FOG              
NEW YORK CITY  TSTM      76  70  82 N12       29.70S VSB 1/2          
$$

ANZ081-ANZ082-ANZ150-NHZ014-MEZ023>029-222300-
COASTAL MARINE OBSERVATIONS
  
STATION/POSITION TIME  TEMP    WIND        PRES    WAVE
                       AIR SEA DIR/SP/G            HT/PER
                 (UTC) (F)     (DEG/KT/KT) (MB)    (FT/S)
ISLE OF SHOALS   2100   68      CALM  /  2 1011.8R
JEFFREYS LEDGE   2138      68                N/A     2/ 7
CASHES LEDGE BUO 2150   66 62   70/  4/  6 1011.3S   2/ 8
GEORGES BANK BUO 2150   66 62  270/  4/  4 1010.7F   3/ 7
$$

.............KEY..............
   WCI - WIND CHILL
   TC  - TEMPERATURE IN CELSIUS
   VSB - VISIBILITY IN MILES
   HX  - HEAT INDEX
   FAIR- INDICATES FEW OR NO CLOUDS BELOW 12,000 FT, WITH NO 
         SIGNIFICANT WEATHER AND/OR OBSTRUCTIONS TO VISIBILITY.